Theta_e
341 343 344 345 345 346 345 344 343 343 344 343 344 346 344 341 341 349 350 350 348 346 344 338 343 340 339 336 333 331 331 330 331 327 326 323 306 306 306 310 317 317 318
343 343 343 343 344 345 344 343 343 342 344 344 345 346 347 345 344 345 341 339 344 347 343 342 341 340 337 335 332 331 330 330 328 326 322 309 308 306 306 315 315 317 316
343 343 343 342 341 341 342 342 342 343 345 346 346 346 347 349 346 339 334 332 338 345 344 341 340 338 335 332 328 328 330 329 324 318 311 312 311 309 312 313 313 319 317
342 342 342 341 340 340 340 341 342 343 346 347 346 346 349 350 349 345 336 340 347 346 343 341 338 330 330 328 329 329 329 324 313 312 312 313 311 309 311 312 313 317 318
341 341 342 342 342 342 342 342 343 344 346 347 348 348 349 351 352 348 345 349 348 344 340 338 335 329 331 330 330 329 321 310 311 311 312 312 310 309 310 311 312 317 320
340 340 341 341 342 342 343 344 344 346 347 349 349 350 351 356 352 351 351 347 344 341 340 337 332 332 329 329 327 317 309 307 306 309 310 310 310 310 310 307 313 318 317
341 341 341 341 342 342 343 344 345 346 348 350 351 352 356 354 352 351 348 344 340 340 339 336 332 327 329 324 314 309 306 306 305 305 306 308 306 307 307 308 318 319 317
341 341 341 341 342 343 343 345 346 348 350 351 353 358 357 354 351 348 345 342 341 339 337 333 325 327 323 315 311 307 306 305 305 305 307 307 306 306 307 311 319 317 319
341 341 341 341 342 343 345 346 348 350 351 354 359 358 357 353 349 345 342 342 339 337 333 325 326 323 316 313 309 306 305 304 304 306 307 306 306 307 307 319 319 318 317
340 341 341 342 344 346 347 349 350 352 355 361 359 358 353 349 347 341 339 333 330 328 324 325 323 317 314 311 307 305 305 304 304 305 306 306 305 305 315 319 318 316 316
341 341 341 345 347 348 349 351 355 356 360 359 357 354 349 347 341 336 331 328 326 323 324 324 318 314 312 308 306 305 304 303 305 305 308 307 305 305 317 318 318 316 317
339 337 345 349 350 351 352 358 362 362 361 358 355 349 346 342 337 332 330 328 323 324 324 319 314 312 310 307 305 304 303 304 305 308 309 308 306 305 314 318 317 316 316
341 347 348 349 352 354 355 359 361 362 357 356 351 347 343 340 334 332 330 325 325 325 320 316 313 310 307 305 304 303 303 304 306 308 309 307 306 305 304 317 317 315 315
346 346 347 353 357 358 358 359 361 359 356 353 348 345 339 337 334 333 329 327 324 323 317 314 311 308 305 304 304 303 303 304 305 306 308 307 306 305 304 312 316 314 314
348 351 355 357 356 358 361 359 358 356 353 351 350 342 338 334 334 332 330 325 324 320 315 312 308 306 304 304 304 303 303 304 305 305 308 308 308 307 305 305 312 311 310
348 354 357 356 362 357 357 356 354 352 347 346 343 338 334 332 331 329 326 325 322 318 314 311 307 304 304 304 305 305 303 305 305 306 308 308 308 307 307 306 306 308 308
351 354 356 357 357 357 354 353 349 343 343 342 336 334 332 330 329 327 324 324 319 316 313 310 305 304 304 304 304 304 304 304 305 305 307 307 308 308 307 307 306 306 306
353 353 357 358 358 355 351 347 341 341 341 338 336 335 334 332 329 326 325 320 319 313 312 307 304 304 304 304 303 303 303 304 305 304 305 307 308 308 307 307 306 306 306
354 354 356 354 353 346 342 339 339 339 338 338 337 336 334 332 326 323 322 318 315 314 312 306 304 304 304 303 303 302 303 304 304 305 306 306 308 308 307 306 305 304 305
355 355 356 349 342 339 338 336 337 338 339 338 337 334 332 329 324 322 315 314 314 314 310 305 304 304 304 303 302 301 303 304 304 305 305 306 307 308 307 307 306 305 305
351 346 338 334 335 336 336 337 337 339 339 337 334 333 332 329 325 322 315 314 315 313 307 304 304 304 303 302 302 301 302 303 303 303 306 306 307 307 306 306 306 305 304
336 335 335 333 332 333 333 335 336 331 330 331 330 331 331 322 324 318 315 315 315 311 305 304 304 304 304 303 302 301 302 303 303 303 304 306 307 307 306 305 305 304 304
333 333 332 331 328 326 331 332 330 329 329 328 329 329 328 322 319 316 316 316 314 309 304 304 305 305 305 304 302 301 302 302 303 303 305 306 306 307 306 305 304 304 303
333 334 331 327 326 328 328 328 328 328 328 328 328 326 323 322 316 316 316 315 315 313 306 304 304 305 305 304 302 302 302 302 303 303 303 306 305 305 305 304 304 303 301
337 333 327 326 327 327 327 326 326 326 325 325 326 325 323 319 316 316 316 316 315 314 306 304 304 304 305 304 302 301 302 302 302 303 303 304 304 304 304 304 303 303 302
330 326 327 326 326 326 326 325 326 326 325 323 323 324 323 320 316 316 316 316 315 312 303 304 304 305 304 303 302 301 301 301 302 303 303 304 304 303 303 303 302 301 301
Wind_Speed
33 33 35 35 34 34 35 33 34 35 32 28 24 22 22 22 22 20 21 29 36 26 20 18 9 7 6 5 5 6 10 13 20 25 22 24 31 27 27 26 28 32 34
33 33 34 33 34 35 35 33 33 33 33 30 25 24 20 16 16 11 22 32 34 29 23 11 7 6 2 6 5 8 15 19 22 25 26 29 25 24 26 29 34 37 35
33 33 33 33 34 34 34 34 34 34 34 32 26 22 17 13 16 11 32 34 33 25 13 6 4 3 4 5 7 11 16 19 19 22 24 20 21 21 25 28 35 39 34
31 30 31 31 32 32 33 34 35 35 34 30 24 17 16 15 20 19 19 18 25 16 10 6 4 2 5 6 9 12 17 21 19 18 19 18 19 23 22 27 39 40 41
29 31 34 34 34 34 36 35 34 33 31 27 21 16 14 13 14 14 8 10 15 14 11 7 3 4 5 7 9 13 17 19 16 16 17 18 20 27 26 29 32 36 42
26 27 29 29 31 32 31 30 28 27 25 19 17 14 10 9 7 9 9 11 13 12 8 7 5 3 4 7 11 14 16 18 18 15 15 19 22 23 26 33 35 39 38
23 24 24 22 23 22 22 22 20 16 15 13 13 10 8 6 9 12 12 14 11 11 11 4 2 1 4 9 11 15 16 14 14 16 19 20 26 27 31 34 37 39 30
20 19 18 17 17 15 14 13 11 9 8 9 8 8 9 12 10 10 15 15 12 13 7 5 2 2 6 9 12 14 14 13 12 14 15 19 23 25 26 29 34 32 30
19 14 11 8 10 9 9 7 5 6 9 9 10 10 13 17 12 13 13 15 13 10 8 5 2 4 7 10 13 13 13 12 10 12 14 17 17 20 23 27 33 40 40
10 7 3 6 5 4 4 6 8 10 11 12 14 15 17 14 12 13 14 14 12 10 9 6 4 5 8 11 13 14 14 14 15 15 15 17 18 21 22 26 31 36 38
12 9 8 7 8 8 8 9 11 13 15 17 18 20 17 11 16 15 12 10 8 11 8 5 4 6 9 11 13 14 14 14 15 16 15 17 20 22 21 25 30 33 36
12 10 8 6 6 7 9 11 12 16 17 21 21 21 16 14 16 15 11 7 11 8 7 5 5 6 8 12 14 13 13 14 15 14 14 17 21 22 18 21 25 33 33
11 8 6 6 8 10 11 14 17 18 20 22 20 20 19 19 18 13 9 9 10 7 6 5 5 6 9 12 12 12 13 15 15 14 14 18 20 20 18 15 18 24 33
11 10 10 10 14 15 15 13 15 18 20 21 21 21 21 21 17 13 12 11 9 6 6 6 5 6 9 10 11 12 14 15 16 15 14 16 17 18 19 17 17 16 22
13 14 16 16 15 16 19 17 19 19 16 15 17 18 21 20 15 12 9 11 9 7 6 6 5 6 7 9 11 11 12 13 14 15 13 14 15 15 18 19 16 16 19
16 19 21 19 21 20 21 22 18 16 14 13 15 17 18 15 15 15 13 10 8 7 6 5 5 5 7 9 9 9 10 12 14 14 13 13 14 16 16 18 19 19 20
19 23 22 22 23 23 21 22 24 23 22 21 21 18 14 16 16 16 14 10 8 6 5 5 5 6 7 8 8 9 9 11 14 13 13 14 12 14 16 16 18 20 22
19 16 19 21 23 20 20 23 21 22 26 26 23 19 15 14 15 14 13 10 8 7 4 4 6 6 7 7 8 8 9 10 11 12 12 13 12 13 14 15 16 18 19
18 20 19 20 22 21 23 22 20 21 23 25 24 21 19 16 16 15 12 8 8 6 4 4 5 5 6 6 7 7 9 9 11 11 11 12 12 12 13 14 18 19 18
18 19 22 22 23 24 24 22 21 20 22 23 23 21 22 20 22 19 14 12 8 5 4 4 4 5 6 5 6 7 8 9 9 9 11 11 12 12 12 12 12 15 16
22 23 23 24 25 24 22 21 19 20 21 21 19 17 16 20 21 19 16 12 7 5 4 4 5 5 5 5 6 5 7 8 9 9 9 10 11 10 12 12 12 12 13
27 27 26 23 22 21 21 20 20 19 19 20 19 19 20 17 20 19 16 11 8 5 5 5 6 6 6 5 6 6 7 7 8 9 9 9 9 10 10 11 11 11 11
25 26 24 22 21 21 21 21 21 21 21 21 22 24 24 19 20 19 16 12 9 6 6 7 6 6 5 5 6 7 8 7 8 9 9 8 9 10 10 11 11 11 10
26 24 23 23 24 25 25 25 24 23 22 21 23 24 22 22 22 20 16 12 9 6 6 7 7 6 6 6 7 8 7 8 10 10 10 9 12 11 10 10 11 11 11
26 24 24 25 27 27 27 26 25 24 22 21 23 23 23 24 24 21 17 12 8 6 6 7 7 7 7 7 8 8 8 9 10 10 11 11 12 12 10 10 10 10 11
25 25 26 27 29 28 29 27 25 25 23 22 23 25 26 26 25 22 18 13 9 7 9 8 8 8 8 8 8 8 8 8 10 11 12 10 10 10 10 10 10 10 10
Wind_Direction
236 241 244 247 250 254 257 260 263 268 270 269 271 270 264 257 263 267 289 297 289 289 282 305 276 278 284 281 301 295 300 301 301 309 312 313 324 332 337 343 345 341 332
240 244 249 252 254 255 256 259 263 268 271 272 272 272 269 263 263 312 311 282 287 283 292 294 260 282 289 300 296 312 312 309 306 306 314 324 327 337 341 345 348 343 329
243 246 249 250 250 251 254 258 261 265 271 274 275 274 272 246 230 203 283 288 259 268 277 232 264 252 303 281 306 312 312 312 309 310 315 321 327 334 344 343 344 346 336
245 248 250 250 252 255 257 260 263 266 270 272 278 276 260 245 236 295 264 244 255 249 228 201 259 271 268 288 311 317 313 312 314 321 319 325 332 334 335 337 341 344 346
248 251 252 254 257 258 261 264 267 271 273 275 272 260 256 251 250 282 223 232 222 204 192 191 247 271 275 301 314 316 319 324 328 326 330 331 335 340 341 342 337 337 357
245 251 258 264 270 273 274 273 273 274 276 273 265 250 243 239 225 218 180 175 182 177 182 199 212 255 299 317 326 330 333 336 337 338 335 336 339 340 340 347 345 347 355
248 256 262 265 266 271 276 280 280 278 271 258 246 229 220 198 170 161 164 167 165 181 182 203 164 330 338 340 345 348 346 343 346 346 352 350 347 349 347 348 353 353 2
250 256 261 266 269 270 272 272 272 261 242 231 215 198 176 155 146 146 161 161 166 167 172 142 105 19 359 358 1 357 355 357 355 359 359 356 353 348 350 354 359 354 16
236 242 248 273 271 260 254 246 227 201 200 184 178 168 158 139 142 147 147 154 157 159 149 128 98 22 14 6 3 2 6 12 18 15 10 5 2 357 359 9 10 15 15
191 190 199 230 225 215 209 181 178 177 166 164 156 153 151 144 135 139 147 143 145 147 135 119 65 29 18 8 3 8 14 16 25 26 26 23 20 16 18 19 17 21 22
154 154 193 186 172 179 185 177 163 164 157 153 150 151 144 135 134 137 141 134 131 132 120 100 67 37 16 6 11 12 19 26 30 27 26 27 28 27 28 26 27 25 28
157 187 178 158 157 167 170 156 156 158 158 155 159 149 138 135 141 142 138 123 123 117 110 103 73 39 11 13 16 22 32 40 38 32 31 29 30 29 33 30 32 42 42
177 152 146 155 160 154 154 153 154 162 160 160 164 157 150 151 148 144 135 130 122 116 110 97 67 32 19 21 28 32 41 43 41 38 37 35 32 29 38 43 37 45 49
162 166 163 157 153 144 140 146 160 158 166 171 164 161 160 155 155 148 145 141 131 119 111 97 60 33 26 31 39 39 41 40 43 44 43 38 35 36 42 50 46 44 50
162 152 145 146 149 145 143 154 162 167 176 175 175 171 158 156 150 141 141 142 128 115 109 89 55 39 44 47 43 43 49 52 48 47 49 42 39 39 45 50 50 48 50
151 149 148 149 154 157 155 150 155 153 147 150 154 156 151 149 141 140 146 149 125 112 109 86 66 62 65 58 51 48 51 55 54 52 53 51 49 47 47 50 54 57 56
153 154 159 160 161 162 163 166 162 151 148 151 151 156 160 153 150 153 154 145 132 120 103 76 71 77 74 69 57 63 57 58 54 55 62 60 56 53 53 54 56 59 59
156 158 158 159 164 167 167 163 166 164 159 162 165 164 162 166 161 158 155 149 141 129 105 78 80 86 87 85 72 72 72 69 65 60 70 67 61 61 59 61 62 65 64
169 168 169 170 167 165 160 161 161 166 170 173 171 167 163 166 163 159 149 155 147 133 111 92 90 95 95 94 80 76 87 81 74 68 73 76 72 66 66 72 68 69 71
177 178 175 173 165 164 166 168 167 173 175 175 176 176 170 171 170 169 162 161 157 141 116 104 103 107 105 105 88 81 86 82 76 68 81 85 87 79 74 78 79 74 74
176 168 168 165 165 168 171 174 175 174 173 175 181 183 186 175 176 172 165 164 157 144 129 120 117 110 108 108 98 95 102 95 92 85 85 95 97 89 81 80 88 82 80
171 166 166 167 169 172 176 176 175 175 176 176 175 174 176 173 175 171 167 164 161 151 141 134 129 119 114 115 113 114 116 109 105 100 96 102 106 103 93 89 96 93 85
174 171 173 174 174 173 173 174 175 173 174 174 173 172 172 176 176 170 169 167 162 148 146 141 136 129 124 124 123 124 128 128 122 115 104 104 113 118 106 99 100 104 100
178 180 182 180 177 174 174 172 172 174 176 178 180 179 178 179 176 174 173 169 166 162 156 152 150 145 139 133 129 130 133 135 132 124 117 114 126 126 119 109 105 105 104
186 187 186 184 179 178 175 175 175 174 176 178 182 182 182 180 178 179 178 174 174 176 175 167 159 150 148 144 145 147 143 141 142 134 125 125 132 133 128 121 115 110 111
193 191 186 186 182 180 180 181 181 180 180 179 180 182 183 184 183 185 186 185 185 188 176 173 163 159 159 157 156 155 153 150 150 147 137 129 130 131 131 127 121 118 116